• Em Portugal
  • Lista de países
  • Para 7 dias
  • Temperatura da água
  • Mapas de satélite
  • Mapa do tempo
  • Widgets de tempo
  • user-avatar
    Iniciar Sessão

    Previsão horária em Bujumbura

    Hoje, 16 Julho, Segunda-feira

    Tempo Temperatura Precipitação Vento Pressão Humidade
    00:00 +21°C° 0 mm 0 m/s 693 mmHg 74%
    01:00 +21°C° 0 mm 0 m/s 693 mmHg 75%
    02:00 +23°C° 0 mm 1 m/s 693 mmHg 77%
    03:00 +22°C° 0 mm 1 m/s 693 mmHg 77%
    04:00 +22°C° 0 mm 1 m/s 693 mmHg 77%
    05:00 +22°C° 0 mm 1 m/s 693 mmHg 77%
    06:00 +23°C° 0 mm 1 m/s 694 mmHg 72%
    07:00 +24°C° 0 mm 1 m/s 694 mmHg 67%
    08:00 +25°C° 0 mm 2 m/s 695 mmHg 61%
    09:00 +27°C° 0 mm 2 m/s 695 mmHg 57%
    10:00 +28°C° 0 mm 2 m/s 695 mmHg 52%
    11:00 +29°C° 0 mm 2 m/s 695 mmHg 48%
    12:00 +31°C° 0 mm 2 m/s 695 mmHg 41%
    13:00 +31°C° 0 mm 2 m/s 694 mmHg 40%
    14:00 +32°C° 0 mm 2 m/s 693 mmHg 38%
    15:00 +31°C° 0 mm 2 m/s 693 mmHg 40%
    16:00 +30°C° 0 mm 2 m/s 692 mmHg 42%
    17:00 +30°C° 0 mm 2 m/s 692 mmHg 44%
    18:00 +28°C° 0 mm 1 m/s 692 mmHg 50%
    19:00 +26°C° 0 mm 1 m/s 692 mmHg 57%
    20:00 +22°C° 0 mm 0 m/s 693 mmHg 63%
    21:00 +21°C° 0 mm 0 m/s 693 mmHg 65%
    22:00 +21°C° 0 mm 0 m/s 693 mmHg 66%
    23:00 +21°C° 0 mm 0 m/s 694 mmHg 68%

    Amanhã, 17 Julho, Terça-feira

    Tempo Temperatura Precipitação Vento Pressão Humidade
    00:00 +22°C° 0 mm 1 m/s 694 mmHg 70%
    01:00 +22°C° 0 mm 1 m/s 693 mmHg 71%
    02:00 +21°C° 0 mm 1 m/s 693 mmHg 72%
    03:00 +21°C° 0 mm 1 m/s 693 mmHg 72%
    04:00 +21°C° 0 mm 1 m/s 693 mmHg 72%
    05:00 +21°C° 0 mm 1 m/s 693 mmHg 72%
    06:00 +22°C° 0 mm 1 m/s 694 mmHg 66%
    07:00 +23°C° 0 mm 1 m/s 694 mmHg 60%
    08:00 +25°C° 0 mm 2 m/s 695 mmHg 55%
    09:00 +27°C° 0 mm 2 m/s 695 mmHg 50%
    10:00 +28°C° 0 mm 2 m/s 695 mmHg 45%
    11:00 +30°C° 0 mm 2 m/s 695 mmHg 40%
    12:00 +31°C° 0 mm 2 m/s 695 mmHg 40%
    13:00 +31°C° 0 mm 2 m/s 694 mmHg 39%
    14:00 +32°C° 0 mm 2 m/s 693 mmHg 38%
    15:00 +31°C° 0 mm 2 m/s 693 mmHg 41%
    16:00 +30°C° 0 mm 2 m/s 692 mmHg 44%
    17:00 +29°C° 0 mm 2 m/s 692 mmHg 46%
    18:00 +27°C° 0 mm 1 m/s 692 mmHg 53%
    19:00 +26°C° 0 mm 1 m/s 693 mmHg 59%
    20:00 +24°C° 0 mm 1 m/s 693 mmHg 66%
    21:00 +24°C° 0 mm 1 m/s 693 mmHg 67%
    22:00 +21°C° 0 mm 0 m/s 694 mmHg 69%
    23:00 +21°C° 0 mm 0 m/s 694 mmHg 71%

    Depois de amanhã, 18 Julho, Quarta-feira

    Tempo Temperatura Precipitação Vento Pressão Humidade
    00:00 +20°C° 0 mm 0 m/s 694 mmHg 73%
    01:00 +20°C° 0 mm 0 m/s 693 mmHg 74%
    02:00 +22°C° 0 mm 1 m/s 693 mmHg 76%
    03:00 +21°C° 0 mm 1 m/s 693 mmHg 77%
    04:00 +21°C° 0 mm 1 m/s 693 mmHg 77%
    05:00 +21°C° 0 mm 1 m/s 693 mmHg 78%
    06:00 +22°C° 0 mm 1 m/s 694 mmHg 71%
    07:00 +23°C° 0 mm 1 m/s 694 mmHg 65%
    08:00 +25°C° 0 mm 2 m/s 695 mmHg 59%
    09:00 +27°C° 0 mm 2 m/s 695 mmHg 53%
    10:00 +28°C° 0 mm 2 m/s 695 mmHg 48%
    11:00 +30°C° 0 mm 2 m/s 695 mmHg 43%
    12:00 +31°C° 0 mm 2 m/s 694 mmHg 42%
    13:00 +31°C° 0 mm 2 m/s 694 mmHg 41%
    14:00 +32°C° 0 mm 2 m/s 693 mmHg 40%
    15:00 +31°C° 0 mm 2 m/s 692 mmHg 44%
    16:00 +30°C° 0 mm 2 m/s 692 mmHg 47%
    17:00 +29°C° 0 mm 2 m/s 691 mmHg 51%
    18:00 +28°C° 0 mm 1 m/s 692 mmHg 56%
    19:00 +26°C° 0 mm 1 m/s 693 mmHg 62%
    20:00 +25°C° 0 mm 1 m/s 693 mmHg 67%
    21:00 +22°C° 0 mm 0 m/s 693 mmHg 69%
    22:00 +22°C° 0 mm 0 m/s 694 mmHg 71%
    23:00 +22°C° 0 mm 0 m/s 694 mmHg 73%

    19 Julho, Quinta-feira

    Tempo Temperatura Precipitação Vento Pressão Humidade
    00:00 +21°C° 0 mm 0 m/s 694 mmHg 75%
    01:00 +21°C° 0 mm 0 m/s 693 mmHg 76%
    02:00 +21°C° 0 mm 0 m/s 692 mmHg 77%
    03:00 +23°C° 0 mm 1 m/s 693 mmHg 77%
    04:00 +22°C° 0 mm 1 m/s 693 mmHg 78%
    05:00 +22°C° 0 mm 1 m/s 693 mmHg 78%
    06:00 +23°C° 0 mm 1 m/s 693 mmHg 72%
    07:00 +24°C° 0 mm 1 m/s 694 mmHg 67%
    08:00 +25°C° 0 mm 2 m/s 695 mmHg 61%
    09:00 +27°C° 0 mm 2 m/s 695 mmHg 55%
    10:00 +28°C° 0 mm 2 m/s 695 mmHg 50%
    11:00 +30°C° 0 mm 2 m/s 695 mmHg 44%
    12:00 +30°C° 0 mm 2 m/s 694 mmHg 44%
    13:00 +31°C° 0 mm 2 m/s 693 mmHg 43%
    14:00 +31°C° 0 mm 2 m/s 692 mmHg 42%
    15:00 +30°C° 0 mm 2 m/s 692 mmHg 45%
    16:00 +29°C° 0 mm 2 m/s 691 mmHg 48%
    17:00 +29°C° 0 mm 2 m/s 691 mmHg 51%
    18:00 +27°C° 0 mm 2 m/s 692 mmHg 56%
    19:00 +26°C° 0 mm 1 m/s 692 mmHg 61%
    20:00 +24°C° 0 mm 1 m/s 693 mmHg 66%
    21:00 +24°C° 0 mm 1 m/s 693 mmHg 68%
    22:00 +22°C° 0 mm 0 m/s 693 mmHg 70%
    23:00 +21°C° 0 mm 0 m/s 693 mmHg 72%

    20 Julho, Sexta-feira

    Tempo Temperatura Precipitação Vento Pressão Humidade
    00:00 +23°C° 0 mm 1 m/s 693 mmHg 73%
    01:00 +23°C° 0 mm 1 m/s 693 mmHg 73%
    02:00 +22°C° 0 mm 1 m/s 692 mmHg 73%
    03:00 +22°C° 0 mm 1 m/s 692 mmHg 73%
    04:00 +22°C° 0 mm 1 m/s 692 mmHg 72%
    05:00 +22°C° 0 mm 1 m/s 693 mmHg 71%
    06:00 +23°C° 0 mm 1 m/s 693 mmHg 66%
    07:00 +24°C° 0 mm 1 m/s 694 mmHg 60%
    08:00 +25°C° 0 mm 2 m/s 695 mmHg 55%
    09:00 +27°C° 0 mm 2 m/s 695 mmHg 50%
    10:00 +29°C° 0 mm 2 m/s 695 mmHg 45%
    11:00 +30°C° 0 mm 2 m/s 694 mmHg 41%
    12:00 +31°C° 0 mm 2 m/s 694 mmHg 40%
    13:00 +31°C° 0 mm 2 m/s 693 mmHg 39%
    14:00 +32°C° 0 mm 2 m/s 692 mmHg 38%
    15:00 +31°C° 0 mm 2 m/s 692 mmHg 40%
    16:00 +30°C° 0 mm 2 m/s 691 mmHg 42%
    17:00 +30°C° 0 mm 2 m/s 691 mmHg 44%
    18:00 +28°C° 0 mm 1 m/s 691 mmHg 51%
    19:00 +26°C° 0 mm 1 m/s 692 mmHg 58%
    20:00 +24°C° 0 mm 1 m/s 692 mmHg 64%
    21:00 +23°C° 0 mm 1 m/s 693 mmHg 66%
    22:00 +21°C° 0 mm 0 m/s 693 mmHg 68%
    23:00 +20°C° 0 mm 0 m/s 693 mmHg 70%

    21 Julho, Sábado

    Tempo Temperatura Precipitação Vento Pressão Humidade
    00:00 +22°C° 0 mm 1 m/s 693 mmHg 70%
    01:00 +22°C° 0 mm 1 m/s 692 mmHg 71%
    02:00 +22°C° 0 mm 1 m/s 692 mmHg 71%
    03:00 +21°C° 0 mm 1 m/s 692 mmHg 70%
    04:00 +21°C° 0 mm 1 m/s 692 mmHg 70%
    05:00 +21°C° 0 mm 1 m/s 693 mmHg 69%
    06:00 +23°C° 0 mm 1 m/s 694 mmHg 63%
    07:00 +25°C° 0 mm 1 m/s 694 mmHg 56%
    08:00 +26°C° 0 mm 1 m/s 695 mmHg 50%
    09:00 +28°C° 0 mm 2 m/s 695 mmHg 45%
    10:00 +29°C° 0 mm 2 m/s 695 mmHg 41%
    11:00 +31°C° 0 mm 2 m/s 695 mmHg 37%
    12:00 +32°C° 0 mm 2 m/s 694 mmHg 36%
    13:00 +32°C° 0 mm 2 m/s 694 mmHg 35%
    14:00 +34°C° 0 mm 2 m/s 693 mmHg 34%
    15:00 +32°C° 0 mm 2 m/s 693 mmHg 36%
    16:00 +31°C° 0 mm 2 m/s 692 mmHg 39%
    17:00 +30°C° 0 mm 2 m/s 692 mmHg 41%
    18:00 +28°C° 0 mm 1 m/s 692 mmHg 48%
    19:00 +26°C° 0 mm 1 m/s 693 mmHg 55%
    20:00 +24°C° 0 mm 1 m/s 693 mmHg 62%
    21:00 +24°C° 0 mm 1 m/s 693 mmHg 64%
    22:00 +21°C° 0 mm 0 m/s 694 mmHg 65%
    23:00 +21°C° 0 mm 0 m/s 694 mmHg 67%
    Mostrar mais